This is the latest recevied weather packets stored in our database for station/object KJ6HT. If no packets are shown the sender has not sent any weather packets the latest 10 day(s).
| Time | Temp. | Humidity | Pressure | Rain* | Wind** | Luminosity | Snow |
|---|---|---|---|---|---|---|---|
| 1788268574 | 16.11° C | 92% | 1012.6 hPa | 0 mm | - | - | - |
| 1788267641 | 16.67° C | 92% | 1012.5 hPa | 0 mm | - | - | - |
| 1788266711 | 16.67° C | 91% | 1012.5 hPa | 0 mm | - | - | - |
| 1788265882 | 16.67° C | 91% | 1012.6 hPa | 0 mm | - | - | - |
| 1788264958 | 16.67° C | 91% | 1012.5 hPa | 0 mm | - | - | - |
| 1788264026 | 16.67° C | 90% | 1012.6 hPa | 0 mm | - | - | - |
| 1788263180 | 16.67° C | 90% | 1012.6 hPa | 0 mm | - | - | - |
| 1788262288 | 17.22° C | 89% | 1012.7 hPa | 0 mm | - | - | - |
| 1788261360 | 17.22° C | 89% | 1012.8 hPa | 0 mm | - | - | - |
| 1788260466 | 17.78° C | 88% | 1012.8 hPa | 0 mm | - | - | - |
| 1788259510 | 17.78° C | 88% | 1012.8 hPa | 0 mm | - | - | - |
| 1788258667 | 18.33° C | 87% | 1012.7 hPa | 0 mm | - | - | - |
| 1788257728 | 18.33° C | 86% | 1012.7 hPa | 0 mm | - | - | - |
| 1788256813 | 18.89° C | 86% | 1012.7 hPa | 0 mm | - | - | - |
| 1788255966 | 18.89° C | 85% | 1012.7 hPa | 0 mm | - | - | - |
| 1788255024 | 18.89° C | 82% | 1012.6 hPa | 0 mm | - | - | - |
| 1788254176 | 19.44° C | 83% | 1012.5 hPa | 0 mm | - | - | - |
| 1788253247 | 19.44° C | 82% | 1012.5 hPa | 0 mm | - | - | - |
| 1788252302 | 20° C | 80% | 1012.6 hPa | 0 mm | - | - | - |
| 1788251456 | 20° C | 80% | 1012.6 hPa | 0 mm | - | - | - |
| 1788250522 | 20.56° C | 77% | 1012.6 hPa | 0 mm | - | - | - |
| 1788249677 | 21.11° C | 75% | 1012.5 hPa | 0 mm | - | - | - |
| 1788248774 | 21.67° C | 70% | 1012.6 hPa | 0 mm | - | - | - |
| 1788247870 | 21.11° C | 73% | 1012.6 hPa | 0 mm | - | - | - |
| 1788246962 | 21.67° C | 71% | 1012.5 hPa | 0 mm | - | - | - |
* Rain latest hour (hover to see other rain measurements)
** Current wind speed in m/s (hover to see current wind gust speed)